Date,TemperatureHighF,TemperatureAvgF,TemperatureLowF,DewpointHighF,DewpointAvgF,DewpointLowF,HumidityHigh,HumidityAvg,HumidityLow,PressureMaxIn,PressureMinIn,WindSpeedMaxMPH,WindSpeedAvgMPH,GustSpeedMaxMPH,PrecipitationSumIn
2013-3-1,28,26,24,27,24,18,99,91,75,0.00,40.00,14,10,18,1.18
2013-3-2,29,21,14,20,17,13,99,86,66,0.00,40.00,11,5,17,0.00
2013-3-3,32,27,21,27,23,20,99,84,67,0.00,40.00,14,7,22,0.06
2013-3-4,35,31,26,33,31,26,99,97,90,0.00,40.00,18,11,26,0.78
2013-3-5,32,29,27,31,27,23,99,91,72,0.00,40.00,21,11,29,3.62
2013-3-6,29,24,13,26,21,13,99,90,76,0.00,40.00,16,8,23,0.00
2013-3-7,31,21,8,28,20,8,99,95,84,0.00,40.00,14,5,17,0.00
2013-3-8,42,33,25,37,31,25,99,92,76,0.00,40.00,14,6,26,1.64
2013-3-9,41,38,36,41,38,36,99,99,99,0.00,40.00,10,6,17,6.28
2013-3-10,38,35,33,38,35,33,99,99,99,0.00,40.00,19,11,26,6.08
2013-3-11,33,28,25,33,28,23,99,96,87,0.00,40.00,17,12,26,0.98
2013-3-12,34,27,22,31,24,20,99,87,68,0.00,40.00,22,12,32,1.08
2013-3-13,34,25,18,26,20,16,94,80,49,0.00,40.00,14,7,23,0.00
2013-3-14,51,37,27,38,31,23,99,81,55,0.00,40.00,11,5,14,0.40
2013-3-15,53,39,28,46,37,28,99,95,77,0.00,40.00,12,4,16,0.00
2013-3-16,36,33,28,36,30,23,99,89,73,0.00,40.00,24,13,31,0.00
2013-3-17,38,30,22,30,25,19,91,80,67,0.00,40.00,19,12,26,0.00
2013-3-18,34,29,21,34,24,15,99,84,63,0.00,40.00,24,12,39,0.93
2013-3-19,36,25,16,24,14,8,85,64,45,0.00,40.00,19,10,27,0.00
2013-3-20,27,21,15,18,10,4,81,63,46,0.00,40.00,22,13,31,0.02
2013-3-21,35,23,12,20,13,7,87,66,42,0.00,40.00,11,5,16,0.00
2013-3-22,40,29,18,27,20,17,98,73,44,0.00,40.00,9,4,12,0.00
2013-3-23,40,32,26,32,26,20,99,80,46,0.00,40.00,12,6,16,1.64
2013-3-24,31,29,28,31,29,28,99,99,99,0.00,40.00,19,13,24,3.76
2013-3-25,35,30,27,28,26,23,99,84,63,0.00,40.00,21,13,27,0.00
2013-3-26,41,30,23,28,25,21,96,79,53,0.00,40.00,12,6,19,0.00
2013-3-27,46,34,23,33,28,23,99,80,48,0.00,40.00,8,2,12,0.84
2013-3-28,56,40,28,38,33,28,99,77,47,0.00,40.00,12,4,16,2.10
2013-3-29,62,46,29,43,36,29,99,72,42,0.00,40.00,9,4,16,0.92
2013-3-30,54,46,39,53,43,-100,99,93,64,0.00,40.00,10,3,15,3.85
2013-3-31,52,40,29,45,33,23,99,79,40,0.00,40.00,21,9,31,0.65